EA1BQO-1 Weather Reports


time (UTC)temp
C
wind
direction
speed
KPH
gust
KPH
rain 1hr
cm
rain 24hr
cm
rain mn
cm
humidity
%
barometer
mb
20260507095758 17 68 1.6 17.7 0.00 0.00 0.00 44 1006.9
20260507094758 16 70 4.8 17.7 0.00 0.00 0.00 45 1006.8
20260507093758 16 38 4.8 14.5 0.00 0.00 0.00 48 1007.0
20260507092758 16 68 4.8 14.5 0.00 0.00 0.00 48 1007.1
20260507091758 15 85 8.0 14.5 0.00 0.00 0.00 49 1007.2
20260507090758 15 96 9.7 16.1 0.00 0.00 0.00 50 1007.3
20260507085758 15 100 9.7 14.5 0.00 0.00 0.00 52 1007.3
20260507084758 14 106 3.2 11.3 0.00 0.00 0.00 58 1007.2
20260507083758 13 122 6.4 11.3 0.00 0.00 0.00 62 1007.4
20260507082758 12 88 3.2 8.0 0.00 0.00 0.00 66 1007.3
20260507081758 12 108 1.6 11.3 0.00 0.00 0.00 66 1007.4
20260507080758 12 93 4.8 9.7 0.00 0.00 0.00 67 1007.5
20260507075758 11 116 3.2 9.7 0.00 0.00 0.00 69 1007.5
20260507074758 11 94 3.2 11.3 0.00 0.00 0.00 70 1007.5
20260507073758 11 89 4.8 11.3 0.00 0.00 0.00 71 1007.6
20260507072758 11 89 3.2 11.3 0.00 0.00 0.00 70 1007.7
20260507071758 11 83 4.8 9.7 0.00 0.00 0.00 70 1007.7
20260507070758 11 95 1.6 9.7 0.00 0.00 0.00 72 1007.6
20260507065758 11 77 4.8 11.3 0.00 0.00 0.00 71 1007.6
20260507064758 11 86 4.8 9.7 0.00 0.00 0.00 74 1007.7
20260507063758 10 98 4.8 9.7 0.00 0.00 0.00 76 1007.7
20260507062758 10 87 3.2 11.3 0.00 0.00 0.00 78 1007.8
20260507061758 9 90 3.2 8.0 0.00 0.00 0.00 81 1007.7
20260507060758 8 91 1.6 4.8 0.00 0.00 0.00 81 1007.7
20260507055758 8 126 0.0 3.2 0.00 0.00 0.00 80 1007.7
20260507054758 8 97 0.0 6.4 0.00 0.00 0.00 80 1007.7
20260507053758 8 90 3.2 4.8 0.00 0.00 0.00 79 1007.7
20260507052758 9 91 0.0 6.4 0.00 0.00 0.00 79 1007.5
20260507051758 9 40 3.2 6.4 0.00 0.00 0.00 79 1007.7
20260507050758 9 79 0.0 6.4 0.00 0.00 0.00 79 1007.7
20260507045758 9 67 1.6 8.0 0.00 0.00 0.00 80 1007.7
20260507044758 9 73 0.0 9.7 0.00 0.00 0.00 81 1007.6
20260507043758 9 50 0.0 9.7 0.00 0.00 0.00 81 1007.8
20260507042758 9 44 3.2 6.4 0.00 0.00 0.00 81 1007.8
20260507041758 9 54 0.0 6.4 0.00 0.00 0.00 82 1007.9
20260507040758 9 84 0.0 4.8 0.00 0.00 0.00 82 1007.9
20260507035758 8 36 0.0 4.8 0.00 0.00 0.00 82 1008.0
20260507034758 8 66 0.0 3.2 0.00 0.00 0.00 81 1008.0
20260507033758 9 46 0.0 4.8 0.00 0.00 0.00 82 1007.8
20260507032758 9 58 1.6 6.4 0.00 0.00 0.00 82 1007.9
20260507031758 9 49 1.6 6.4 0.00 0.00 0.00 82 1007.8
20260507030758 9 73 1.6 9.7 0.00 0.00 0.00 82 1007.7
20260507025758 9 35 3.2 14.5 0.00 0.00 0.00 82 1008.0
20260507024758 8 69 4.8 9.7 0.00 0.00 0.00 84 1008.0
20260507023758 8 90 3.2 6.4 0.00 0.00 0.00 87 1008.1
20260507022757 8 80 0.0 4.8 0.00 0.00 0.00 87 1008.1
20260507021757 8 72 0.0 4.8 0.00 0.00 0.00 87 1008.1
20260507020757 8 59 1.6 8.0 0.00 0.00 0.00 88 1008.0
20260507015757 7 68 1.6 6.4 0.00 0.00 0.00 88 1008.1
20260507014757 7 73 0.0 8.0 0.00 0.00 0.00 89 1008.0
20260507013757 7 79 1.6 8.0 0.00 0.00 0.00 90 1008.1
20260507012757 7 75 1.6 6.4 0.00 0.00 0.00 89 1008.1
20260507011757 7 90 3.2 6.4 0.00 0.00 0.00 88 1008.4
20260507010757 7 82 0.0 6.4 0.00 0.00 0.00 87 1008.5
20260507005757 7 69 1.6 6.4 0.00 0.00 0.00 87 1008.4
20260507004757 7 85 0.0 6.4 0.00 0.00 0.00 87 1008.6
20260507003757 7 69 3.2 4.8 0.00 0.00 0.00 86 1008.5
20260507002757 7 71 0.0 8.0 0.00 0.00 0.00 86 1008.6
20260507001757 8 80 3.2 9.7 0.00 0.00 0.00 87 1008.6
20260507000903 8 77 0.0 4.8 0.00 0.00 0.00 87 1008.6
20260506235903 8 63 0.0 4.8 0.00 0.00 0.00 87 1008.6
20260506234903 8 121 0.0 6.4 0.00 0.00 0.00 87 1008.6
20260506233903 8 127 0.0 3.2 0.00 0.00 0.00 86 1008.5
20260506232903 8 91 0.0 4.8 0.00 0.00 0.00 86 1008.6
20260506231903 8 121 1.6 6.4 0.00 0.00 0.00 85 1008.6
20260506230903 8 91 0.0 4.8 0.00 0.00 0.00 84 1008.5
20260506225903 8 125 0.0 3.2 0.00 0.00 0.00 83 1008.5
20260506224903 8 135 0.0 1.6 0.00 0.00 0.00 82 1008.6
20260506223903 9 130 0.0 3.2 0.00 0.00 0.00 81 1008.5
20260506222903 9 123 0.0 3.2 0.00 0.00 0.00 80 1008.7
20260506221903 10 110 0.0 3.2 0.00 0.00 0.00 79 1008.6
20260506220903 10 11 0.0 3.2 0.00 0.00 0.00 79 1008.5
20260506215903 10 37 0.0 1.6 0.00 0.00 0.00 78 1008.6
20260506214903 10 50 0.0 1.6 0.00 0.00 0.00 78 1008.7
20260506213903 10 119 0.0 3.2 0.00 0.00 0.00 78 1008.7
20260506212903 10 142 0.0 1.6 0.00 0.00 0.00 77 1008.7
20260506211903 10 140 0.0 1.6 0.00 0.00 0.00 76 1008.6
20260506210903 10 176 0.0 1.6 0.00 0.00 0.00 74 1008.5
20260506205903 10 181 0.0 3.2 0.00 0.00 0.00 73 1008.6
20260506204903 10 172 0.0 3.2 0.00 0.00 0.00 72 1008.6
20260506203903 11 133 0.0 1.6 0.00 0.00 0.00 70 1008.5
20260506202903 11 150 0.0 0.0 0.00 0.00 0.00 69 1008.4
20260506201903 11 161 0.0 1.6 0.00 0.00 0.00 67 1008.2
20260506200903 12 138 0.0 1.6 0.00 0.00 0.00 66 1008.1
20260506195903 12 181 0.0 1.6 0.00 0.00 0.00 65 1008.0
20260506194903 12 248 0.0 0.0 0.00 0.00 0.00 64 1008.0
20260506193903 12 252 0.0 1.6 0.00 0.00 0.00 62 1007.9
20260506192903 12 223 0.0 3.2 0.00 0.00 0.00 60 1007.8
20260506191903 13 237 0.0 4.8 0.00 0.00 0.00 57 1007.7
20260506190903 13 283 1.6 6.4 0.00 0.00 0.00 54 1007.8
20260506185903 14 292 0.0 8.0 0.00 0.00 0.00 50 1007.7
20260506184903 14 294 4.8 8.0 0.00 0.00 0.00 48 1007.6
20260506183903 13 214 0.0 9.7 0.00 0.00 0.00 46 1007.6
20260506182903 13 239 1.6 8.0 0.00 0.00 0.00 49 1007.7
20260506181903 14 252 0.0 6.4 0.00 0.00 0.00 47 1007.7
20260506180903 14 280 1.6 4.8 0.00 0.00 0.00 46 1007.6
20260506175903 15 186 1.6 9.7 0.00 0.00 0.00 44 1007.6
20260506174903 15 220 0.0 8.0 0.00 0.00 0.00 42 1007.6
20260506173903 15 228 1.6 9.7 0.00 0.00 0.00 41 1007.8
20260506172903 15 207 3.2 14.5 0.00 0.00 0.00 42 1007.8
20260506171903 15 212 6.4 19.3 0.00 0.00 0.00 41 1007.8
20260506170903 16 231 6.4 12.9 0.00 0.00 0.00 38 1007.8
20260506165903 16 257 4.8 14.5 0.00 0.00 0.00 33 1007.7
20260506164903 17 280 4.8 11.3 0.00 0.00 0.00 33 1007.5
20260506163903 17 253 3.2 8.0 0.00 0.00 0.00 31 1007.7
20260506162903 16 228 1.6 9.7 0.00 0.03 0.00 30 1007.6
20260506161903 17 255 4.8 12.9 0.00 0.03 0.00 31 1007.6
20260506160903 17 249 6.4 11.3 0.00 0.03 0.00 26 1007.7
20260506155903 18 243 3.2 14.5 0.00 0.03 0.00 26 1007.6
20260506154903 17 265 6.4 12.9 0.00 0.03 0.00 29 1007.8
20260506153902 17 269 4.8 12.9 0.00 0.03 0.00 28 1007.8
20260506152902 18 289 3.2 11.3 0.00 0.03 0.00 25 1007.9
20260506151902 18 257 6.4 12.9 0.00 0.03 0.00 25 1008.1
20260506150903 17 220 6.4 11.3 0.00 0.03 0.00 26 1008.0
20260506145902 17 227 1.6 9.7 0.00 0.03 0.00 26 1008.2
20260506144902 17 261 4.8 12.9 0.00 0.03 0.00 22 1008.1
20260506143902 18 261 6.4 14.5 0.00 0.03 0.00 23 1008.1
20260506142902 18 189 4.8 12.9 0.00 0.03 0.00 22 1008.2
20260506141902 18 229 4.8 12.9 0.00 0.03 0.00 22 1008.5
20260506140902 17 336 4.8 14.5 0.00 0.03 0.00 21 1008.6
20260506135902 18 230 4.8 14.5 0.00 0.03 0.00 22 1008.6
20260506134902 18 252 0.0 12.9 0.00 0.05 0.00 22 1008.6
20260506133902 18 250 4.8 12.9 0.00 0.08 0.00 23 1008.7
20260506132902 18 258 4.8 12.9 0.00 0.08 0.00 25 1008.7
20260506131902 18 300 3.2 12.9 0.00 0.08 0.00 21 1008.9
20260506130902 17 305 4.8 12.9 0.00 0.08 0.00 27 1009.0
20260506125902 17 225 4.8 9.7 0.00 0.08 0.00 26 1009.2
20260506124902 17 235 3.2 12.9 0.00 0.08 0.00 27 1009.2
20260506123902 17 275 4.8 11.3 0.00 0.08 0.00 30 1009.3
20260506122902 17 288 4.8 14.5 0.00 0.08 0.00 32 1009.5
20260506121902 17 296 1.6 11.3 0.00 0.08 0.00 29 1009.7
20260506120902 17 263 4.8 11.3 0.00 0.08 0.00 32 1009.7
20260506115902 16 269 0.0 9.7 0.00 0.08 0.00 34 1009.9
20260506114902 16 241 3.2 12.9 0.00 0.08 0.00 35 1010.0
20260506113902 16 211 4.8 8.0 0.00 0.08 0.00 38 1010.0
20260506112902 16 279 4.8 9.7 0.00 0.08 0.00 34 1010.3
20260506111902 16 210 3.2 12.9 0.00 0.08 0.00 41 1010.6
20260506110902 15 288 4.8 12.9 0.00 0.08 0.00 41 1010.5
20260506105902 15 194 0.0 12.9 0.00 0.08 0.00 45 1010.6
20260506104902 15 262 4.8 9.7 0.00 0.08 0.00 46 1010.6
20260506103902 15 250 4.8 11.3 0.00 0.08 0.00 45 1010.6
20260506102902 15 213 4.8 9.7 0.00 0.08 0.00 52 1010.8
20260506101902 13 256 4.8 9.7 0.00 0.08 0.00 55 1010.8
20260506100902 13 245 3.2 9.7 0.00 0.08 0.00 56 1010.7